Find Starlink 33817

NORAD ID: 63583 Int'l Des: 2025-076 Owner: SPXS Country: US Constellation: starlink operational
LEOCIRCULAR

Live-Position

3D-Globus wird geladen...

Über Starlink 33817

Beschreibung wird geladen...

Nächste Überflüge

Passes for default location (London). Set your location on the main map for personalized predictions.

Höhenverlauf

Loading altitude history...

Zweizeiliger Elementsatz

1 63583U 25076Q 26126.35568957 .00017031 00000-0 62706-3 0 9996
2 63583 42.9990 355.6811 0000975 82.9441 277.1521 15.27575805 60644
Epoch: 6. Mai 2026 • Age: 16 hours

Aktueller Status

Höhe 484.3 km
Geschwindigkeit 7.63 km/s
Subsatellitenpunkt 37.33°N, 118.55°W
Startdatum 14. Apr. 2025
Alter 1 years
Typ internet

Technische Details

Klassifizierung Payload
Masse 575.00 kg
Trockenmasse 530.00 kg
Gesamtmasse 575.00 kg
Länge 0.30 m
Durchmesser 4.10 m
Spannweite 29.00 m
Form Box + pan
Hersteller SPXS
Bus-Typ Starlink V2MO
Phasenstatus In Orbit
Besitzer/Staat SPXS/US

Most Searched